QPF
0.00 0.00 0.00 0.00 0.00 0.00 0.00 0.00 0.00 0.00 0.00 0.00 0.01 0.01 0.01 0.01 0.01 0.01 0.01 0.01 0.01 0.00 0.00 0.00 0.00 0.00 0.00 0.00 0.00 0.01 0.01 0.01 0.00 0.00 0.00 0.01 0.01 0.02 0.02 0.03 0.05 0.05 0.05 0.03
0.00 0.00 0.00 0.00 0.00 0.00 0.00 0.00 0.00 0.00 0.00 0.00 0.01 0.01 0.01 0.01 0.01 0.01 0.01 0.01 0.01 0.00 0.00 0.00 0.00 0.00 0.00 0.00 0.00 0.00 0.00 0.01 0.00 0.00 0.00 0.00 0.00 0.01 0.02 0.03 0.03 0.04 0.04 0.03
0.00 0.00 0.00 0.00 0.00 0.00 0.00 0.01 0.00 0.00 0.00 0.00 0.01 0.01 0.01 0.01 0.01 0.00 0.00 0.01 0.00 0.00 0.00 0.00 0.00 0.01 0.01 0.00 0.00 0.00 0.00 0.01 0.00 0.00 0.00 0.00 0.00 0.00 0.00 0.01 0.02 0.03 0.04 0.03
0.00 0.00 0.00 0.00 0.00 0.00 0.00 0.00 0.00 0.00 0.00 0.00 0.01 0.02 0.01 0.01 0.01 0.00 0.00 0.00 0.00 0.00 0.00 0.00 0.01 0.02 0.02 0.01 0.00 0.00 0.00 0.00 0.00 0.00 0.00 0.00 0.00 0.01 0.00 0.01 0.03 0.04 0.04 0.03
0.00 0.00 0.00 0.00 0.00 0.00 0.00 0.00 0.00 0.00 0.00 0.00 0.00 0.01 0.01 0.01 0.01 0.01 0.00 0.00 0.00 0.00 0.00 0.00 0.01 0.02 0.01 0.01 0.01 0.00 0.00 0.00 0.00 0.00 0.00 0.01 0.01 0.01 0.00 0.01 0.02 0.03 0.04 0.03
0.00 0.00 0.00 0.00 0.00 0.00 0.00 0.00 0.01 0.01 0.01 0.00 0.00 0.00 0.01 0.01 0.01 0.00 0.01 0.00 0.00 0.00 0.00 0.00 0.00 0.01 0.01 0.00 0.00 0.00 0.00 0.00 0.00 0.00 0.00 0.01 0.02 0.01 0.01 0.01 0.01 0.02 0.03 0.03
0.00 0.00 0.00 0.00 0.00 0.00 0.00 0.01 0.01 0.01 0.00 0.00 0.00 0.00 0.00 0.01 0.00 0.00 0.00 0.00 0.00 0.00 0.00 0.00 0.00 0.01 0.01 0.00 0.00 0.00 0.00 0.00 0.00 0.00 0.00 0.01 0.02 0.03 0.02 0.02 0.02 0.03 0.03 0.03
0.00 0.00 0.00 0.00 0.00 0.00 0.00 0.00 0.00 0.00 0.00 0.00 0.00 0.00 0.01 0.00 0.00 0.00 0.00 0.00 0.00 0.00 0.00 0.01 0.01 0.01 0.01 0.01 0.00 0.00 0.00 0.00 0.01 0.02 0.02 0.03 0.04 0.04 0.04 0.04 0.04 0.04 0.04 0.03
0.00 0.00 0.00 0.00 0.00 0.00 0.00 0.00 0.00 0.00 0.00 0.00 0.00 0.00 0.00 0.00 0.00 0.00 0.00 0.00 0.00 0.00 0.01 0.01 0.01 0.01 0.01 0.00 0.00 0.00 0.00 0.01 0.02 0.04 0.05 0.06 0.06 0.07 0.05 0.05 0.04 0.04 0.03 0.03
0.00 0.00 0.00 0.00 0.00 0.00 0.00 0.00 0.00 0.00 0.00 0.00 0.00 0.00 0.00 0.00 0.00 0.00 0.00 0.00 0.00 0.01 0.01 0.01 0.01 0.00 0.00 0.01 0.01 0.00 0.00 0.01 0.03 0.04 0.05 0.06 0.07 0.08 0.05 0.02 0.04 0.04 0.03 0.02
0.00 0.00 0.00 0.00 0.00 0.00 0.00 0.00 0.00 0.00 0.00 0.00 0.00 0.00 0.00 0.01 0.01 0.01 0.01 0.01 0.01 0.01 0.01 0.01 0.01 0.01 0.00 0.00 0.00 0.00 0.01 0.02 0.02 0.03 0.03 0.03 0.03 0.03 0.03 0.02 0.02 0.04 0.03 0.02
0.00 0.00 0.00 0.00 0.00 0.00 0.00 0.00 0.00 0.00 0.00 0.00 0.00 0.00 0.00 0.00 0.01 0.02 0.03 0.03 0.02 0.03 0.03 0.01 0.01 0.00 0.01 0.01 0.01 0.01 0.01 0.02 0.03 0.04 0.04 0.03 0.02 0.01 0.02 0.03 0.02 0.03 0.02 0.01
0.00 0.00 0.00 0.00 0.00 0.00 0.00 0.00 0.00 0.00 0.00 0.00 0.00 0.00 0.00 0.00 0.01 0.01 0.02 0.02 0.02 0.02 0.02 0.01 0.01 0.01 0.01 0.01 0.01 0.02 0.03 0.05 0.04 0.06 0.06 0.03 0.02 0.02 0.02 0.02 0.02 0.02 0.02 0.01
0.00 0.00 0.00 0.00 0.00 0.00 0.00 0.00 0.00 0.00 0.00 0.00 0.00 0.00 0.00 0.00 0.00 0.00 0.01 0.01 0.01 0.01 0.02 0.02 0.02 0.03 0.03 0.02 0.03 0.04 0.04 0.03 0.03 0.04 0.04 0.03 0.03 0.03 0.03 0.03 0.02 0.02 0.01 0.01
0.00 0.00 0.00 0.00 0.00 0.00 0.00 0.00 0.00 0.00 0.00 0.00 0.00 0.00 0.00 0.00 0.00 0.00 0.01 0.01 0.01 0.01 0.03 0.04 0.04 0.05 0.05 0.04 0.03 0.04 0.05 0.05 0.04 0.05 0.06 0.06 0.06 0.06 0.05 0.04 0.03 0.02 0.02 0.02
0.00 0.00 0.00 0.00 0.00 0.00 0.00 0.00 0.00 0.00 0.00 0.00 0.00 0.00 0.00 0.00 0.00 0.01 0.01 0.01 0.01 0.01 0.01 0.02 0.03 0.06 0.06 0.06 0.06 0.08 0.07 0.07 0.07 0.08 0.08 0.09 0.08 0.05 0.05 0.03 0.03 0.03 0.03 0.03
0.00 0.00 0.00 0.00 0.00 0.00 0.00 0.00 0.00 0.00 0.00 0.00 0.00 0.00 0.01 0.01 0.01 0.01 0.01 0.01 0.01 0.01 0.01 0.01 0.02 0.06 0.07 0.08 0.11 0.12 0.10 0.09 0.09 0.09 0.09 0.07 0.06 0.04 0.03 0.03 0.04 0.05 0.05 0.05
0.00 0.00 0.00 0.00 0.00 0.00 0.00 0.00 0.00 0.00 0.00 0.00 0.00 0.01 0.01 0.01 0.01 0.02 0.02 0.01 0.01 0.01 0.01 0.01 0.02 0.03 0.03 0.03 0.05 0.06 0.07 0.08 0.06 0.04 0.04 0.04 0.04 0.05 0.04 0.05 0.07 0.06 0.08 0.09
0.00 0.00 0.00 0.00 0.00 0.00 0.00 0.00 0.00 0.00 0.00 0.00 0.00 0.00 0.01 0.01 0.01 0.02 0.01 0.01 0.01 0.01 0.01 0.01 0.01 0.01 0.01 0.01 0.02 0.02 0.02 0.03 0.03 0.03 0.03 0.03 0.04 0.04 0.04 0.05 0.07 0.06 0.07 0.10
0.00 0.00 0.00 0.00 0.00 0.00 0.00 0.00 0.00 0.00 0.01 0.01 0.01 0.01 0.01 0.02 0.02 0.01 0.01 0.01 0.00 0.00 0.01 0.01 0.01 0.01 0.01 0.02 0.02 0.02 0.02 0.01 0.02 0.03 0.04 0.07 0.06 0.06 0.05 0.06 0.08 0.07 0.07 0.09
0.00 0.00 0.00 0.00 0.00 0.00 0.00 0.00 0.00 0.00 0.01 0.01 0.01 0.01 0.01 0.02 0.02 0.02 0.02 0.02 0.01 0.01 0.02 0.02 0.03 0.02 0.03 0.03 0.03 0.03 0.03 0.02 0.02 0.02 0.03 0.06 0.08 0.08 0.08 0.09 0.11 0.12 0.10 0.11
0.00 0.00 0.00 0.00 0.00 0.00 0.00 0.00 0.01 0.00 0.00 0.01 0.01 0.01 0.02 0.02 0.02 0.01 0.02 0.03 0.04 0.06 0.05 0.05 0.06 0.05 0.05 0.06 0.06 0.05 0.05 0.04 0.03 0.03 0.04 0.05 0.06 0.07 0.09 0.11 0.12 0.12 0.12 0.12
0.02 0.01 0.01 0.00 0.00 0.00 0.00 0.01 0.00 0.00 0.00 0.01 0.01 0.01 0.02 0.02 0.01 0.01 0.02 0.02 0.03 0.06 0.07 0.05 0.05 0.05 0.05 0.04 0.04 0.05 0.07 0.05 0.04 0.05 0.05 0.06 0.09 0.11 0.11 0.16 0.19 0.20 0.20 0.15
0.01 0.01 0.01 0.01 0.01 0.01 0.01 0.01 0.01 0.01 0.01 0.01 0.02 0.02 0.02 0.02 0.02 0.02 0.02 0.02 0.03 0.04 0.05 0.04 0.03 0.03 0.03 0.03 0.03 0.02 0.02 0.02 0.02 0.04 0.05 0.05 0.06 0.11 0.12 0.11 0.11 0.10 0.11 0.11
0.01 0.01 0.01 0.01 0.01 0.01 0.02 0.02 0.01 0.02 0.02 0.02 0.03 0.03 0.03 0.02 0.02 0.02 0.03 0.04 0.05 0.06 0.05 0.04 0.03 0.02 0.02 0.02 0.02 0.01 0.01 0.01 0.02 0.02 0.03 0.04 0.03 0.05 0.05 0.05 0.06 0.06 0.06 0.06
0.01 0.01 0.01 0.01 0.01 0.01 0.02 0.02 0.02 0.02 0.03 0.03 0.03 0.04 0.04 0.05 0.05 0.05 0.06 0.05 0.06 0.06 0.05 0.03 0.02 0.02 0.02 0.01 0.01 0.01 0.01 0.02 0.03 0.03 0.02 0.03 0.03 0.03 0.04 0.04 0.05 0.06 0.05 0.06
MSLP
1010.75 1011.63 1012.38 1012.96 1013.41 1013.75 1014.05 1014.34 1014.66 1014.99 1015.31 1015.60 1015.81 1015.94 1015.98 1015.96 1015.90 1015.85 1015.84 1015.89 1015.99 1016.11 1016.23 1016.30 1016.31 1016.24 1016.13 1016.00 1015.88 1015.82 1015.85 1015.96 1016.13 1016.34 1016.54 1016.68 1016.75 1016.73 1016.64 1016.50 1016.35 1016.23 1016.17 1016.18
1011.70 1012.41 1012.96 1013.36 1013.66 1013.94 1014.24 1014.61 1015.05 1015.52 1015.97 1016.33 1016.55 1016.62 1016.53 1016.33 1016.10 1015.88 1015.76 1015.75 1015.84 1016.02 1016.23 1016.41 1016.51 1016.51 1016.43 1016.29 1016.14 1016.03 1015.99 1016.06 1016.20 1016.40 1016.59 1016.74 1016.80 1016.76 1016.63 1016.44 1016.22 1016.03 1015.90 1015.86
1012.33 1012.85 1013.21 1013.45 1013.66 1013.92 1014.29 1014.79 1015.41 1016.06 1016.66 1017.11 1017.35 1017.35 1017.13 1016.74 1016.30 1015.91 1015.63 1015.54 1015.62 1015.84 1016.13 1016.41 1016.61 1016.69 1016.65 1016.52 1016.35 1016.20 1016.12 1016.14 1016.25 1016.43 1016.63 1016.77 1016.84 1016.79 1016.62 1016.38 1016.10 1015.84 1015.65 1015.55
1012.61 1012.95 1013.14 1013.27 1013.43 1013.73 1014.22 1014.91 1015.74 1016.61 1017.38 1017.94 1018.20 1018.13 1017.76 1017.18 1016.52 1015.92 1015.49 1015.28 1015.31 1015.55 1015.90 1016.26 1016.55 1016.71 1016.72 1016.62 1016.44 1016.26 1016.15 1016.14 1016.24 1016.41 1016.60 1016.76 1016.83 1016.78 1016.61 1016.33 1016.01 1015.70 1015.44 1015.27
1012.63 1012.80 1012.86 1012.91 1013.07 1013.46 1014.11 1015.01 1016.08 1017.16 1018.11 1018.77 1019.05 1018.91 1018.40 1017.63 1016.75 1015.94 1015.33 1014.99 1014.95 1015.17 1015.55 1015.97 1016.33 1016.55 1016.62 1016.54 1016.37 1016.19 1016.06 1016.03 1016.11 1016.28 1016.49 1016.67 1016.76 1016.72 1016.55 1016.27 1015.92 1015.57 1015.26 1015.03
1012.52 1012.53 1012.48 1012.50 1012.70 1013.19 1014.01 1015.12 1016.41 1017.69 1018.79 1019.53 1019.82 1019.61 1018.97 1018.03 1016.96 1015.96 1015.17 1014.71 1014.58 1014.75 1015.12 1015.57 1015.98 1016.25 1016.35 1016.30 1016.14 1015.96 1015.82 1015.79 1015.87 1016.04 1016.26 1016.46 1016.58 1016.57 1016.42 1016.15 1015.80 1015.43 1015.09 1014.83
1012.42 1012.30 1012.18 1012.17 1012.42 1013.02 1013.99 1015.27 1016.72 1018.15 1019.35 1020.15 1020.43 1020.16 1019.42 1018.34 1017.12 1015.96 1015.04 1014.46 1014.25 1014.37 1014.72 1015.16 1015.57 1015.86 1015.98 1015.94 1015.79 1015.61 1015.47 1015.42 1015.50 1015.67 1015.90 1016.11 1016.26 1016.28 1016.16 1015.91 1015.58 1015.22 1014.88 1014.60
1012.43 1012.23 1012.05 1012.05 1012.35 1013.02 1014.09 1015.47 1017.02 1018.51 1019.75 1020.56 1020.81 1020.50 1019.69 1018.52 1017.22 1015.97 1014.97 1014.31 1014.04 1014.11 1014.41 1014.83 1015.22 1015.50 1015.61 1015.56 1015.40 1015.20 1015.04 1014.98 1015.04 1015.20 1015.42 1015.64 1015.79 1015.84 1015.75 1015.53 1015.23 1014.90 1014.58 1014.32
1012.61 1012.36 1012.18 1012.19 1012.52 1013.24 1014.34 1015.74 1017.29 1018.76 1019.97 1020.74 1020.95 1020.61 1019.77 1018.59 1017.27 1016.02 1015.00 1014.33 1014.02 1014.05 1014.31 1014.67 1015.02 1015.25 1015.32 1015.24 1015.05 1014.82 1014.63 1014.53 1014.55 1014.68 1014.87 1015.07 1015.21 1015.26 1015.18 1014.99 1014.73 1014.43 1014.15 1013.92
1012.94 1012.70 1012.54 1012.59 1012.95 1013.67 1014.74 1016.08 1017.54 1018.92 1020.03 1020.71 1020.87 1020.51 1019.70 1018.57 1017.32 1016.14 1015.18 1014.54 1014.24 1014.24 1014.46 1014.76 1015.03 1015.19 1015.20 1015.06 1014.82 1014.54 1014.30 1014.14 1014.11 1014.17 1014.31 1014.46 1014.57 1014.59 1014.51 1014.34 1014.09 1013.83 1013.59 1013.40
1013.34 1013.18 1013.11 1013.22 1013.59 1014.29 1015.29 1016.50 1017.80 1019.01 1019.97 1020.54 1020.64 1020.29 1019.54 1018.52 1017.41 1016.38 1015.54 1014.99 1014.73 1014.72 1014.89 1015.11 1015.29 1015.35 1015.27 1015.05 1014.74 1014.39 1014.09 1013.87 1013.76 1013.75 1013.81 1013.89 1013.94 1013.91 1013.81 1013.62 1013.39 1013.15 1012.94 1012.79
1013.73 1013.73 1013.78 1013.98 1014.40 1015.06 1015.95 1017.01 1018.11 1019.11 1019.88 1020.32 1020.37 1020.03 1019.38 1018.52 1017.60 1016.75 1016.08 1015.64 1015.44 1015.43 1015.54 1015.68 1015.75 1015.70 1015.51 1015.20 1014.81 1014.39 1014.03 1013.74 1013.56 1013.47 1013.44 1013.43 1013.40 1013.31 1013.16 1012.95 1012.71 1012.47 1012.27 1012.14
1014.09 1014.28 1014.51 1014.83 1015.30 1015.93 1016.71 1017.59 1018.47 1019.25 1019.83 1020.14 1020.14 1019.84 1019.31 1018.63 1017.91 1017.27 1016.77 1016.45 1016.31 1016.29 1016.34 1016.37 1016.33 1016.16 1015.86 1015.45 1014.99 1014.51 1014.08 1013.74 1013.49 1013.32 1013.21 1013.11 1013.00 1012.84 1012.63 1012.38 1012.11 1011.85 1011.64 1011.50
1014.41 1014.82 1015.24 1015.70 1016.23 1016.85 1017.53 1018.24 1018.92 1019.49 1019.89 1020.08 1020.04 1019.78 1019.36 1018.86 1018.34 1017.90 1017.55 1017.34 1017.24 1017.20 1017.17 1017.10 1016.92 1016.63 1016.23 1015.74 1015.21 1014.69 1014.22 1013.83 1013.53 1013.30 1013.12 1012.95 1012.76 1012.53 1012.25 1011.95 1011.64 1011.35 1011.11 1010.93
1014.75 1015.37 1015.97 1016.57 1017.17 1017.77 1018.37 1018.94 1019.44 1019.83 1020.07 1020.16 1020.08 1019.87 1019.57 1019.21 1018.87 1018.59 1018.37 1018.23 1018.14 1018.06 1017.94 1017.75 1017.45 1017.04 1016.54 1015.98 1015.41 1014.86 1014.37 1013.96 1013.62 1013.35 1013.11 1012.88 1012.63 1012.33 1012.00 1011.65 1011.29 1010.95 1010.66 1010.43
1015.19 1015.97 1016.71 1017.42 1018.07 1018.67 1019.19 1019.64 1019.99 1020.24 1020.36 1020.37 1020.28 1020.11 1019.89 1019.66 1019.45 1019.28 1019.15 1019.04 1018.93 1018.78 1018.56 1018.24 1017.83 1017.32 1016.74 1016.13 1015.52 1014.96 1014.47 1014.05 1013.71 1013.41 1013.13 1012.85 1012.54 1012.20 1011.82 1011.41 1011.01 1010.62 1010.27 1009.97
1015.78 1016.65 1017.48 1018.24 1018.91 1019.49 1019.95 1020.30 1020.54 1020.68 1020.71 1020.67 1020.57 1020.44 1020.29 1020.15 1020.03 1019.93 1019.83 1019.71 1019.55 1019.31 1018.99 1018.56 1018.04 1017.44 1016.80 1016.16 1015.54 1014.98 1014.49 1014.07 1013.71 1013.40 1013.09 1012.77 1012.42 1012.04 1011.61 1011.17 1010.72 1010.27 1009.86 1009.48
1016.53 1017.42 1018.26 1019.01 1019.66 1020.19 1020.59 1020.86 1021.02 1021.08 1021.07 1021.00 1020.91 1020.81 1020.71 1020.63 1020.55 1020.47 1020.37 1020.21 1019.98 1019.66 1019.23 1018.71 1018.10 1017.43 1016.75 1016.08 1015.45 1014.89 1014.41 1013.99 1013.61 1013.27 1012.93 1012.58 1012.19 1011.77 1011.31 1010.83 1010.33 1009.85 1009.37 1008.93
1017.40 1018.23 1019.00 1019.69 1020.27 1020.73 1021.06 1021.27 1021.38 1021.40 1021.37 1021.30 1021.23 1021.16 1021.09 1021.04 1020.98 1020.90 1020.76 1020.55 1020.25 1019.84 1019.32 1018.72 1018.04 1017.33 1016.62 1015.93 1015.30 1014.73 1014.23 1013.79 1013.39 1013.01 1012.63 1012.23 1011.80 1011.34 1010.85 1010.34 1009.82 1009.29 1008.77 1008.27
1018.28 1018.99 1019.64 1020.22 1020.70 1021.07 1021.34 1021.51 1021.59 1021.60 1021.58 1021.54 1021.49 1021.45 1021.41 1021.37 1021.31 1021.20 1021.02 1020.75 1020.38 1019.89 1019.31 1018.65 1017.93 1017.19 1016.45 1015.75 1015.10 1014.51 1013.98 1013.50 1013.05 1012.62 1012.18 1011.73 1011.25 1010.75 1010.24 1009.71 1009.16 1008.62 1008.07 1007.52
1019.04 1019.59 1020.10 1020.55 1020.93 1021.22 1021.43 1021.57 1021.65 1021.68 1021.69 1021.68 1021.68 1021.67 1021.65 1021.61 1021.53 1021.38 1021.16 1020.83 1020.40 1019.86 1019.23 1018.53 1017.79 1017.03 1016.28 1015.56 1014.89 1014.26 1013.69 1013.14 1012.62 1012.11 1011.61 1011.09 1010.57 1010.04 1009.51 1008.97 1008.42 1007.87 1007.31 1006.75
1019.57 1019.98 1020.35 1020.68 1020.95 1021.18 1021.36 1021.49 1021.59 1021.66 1021.71 1021.75 1021.79 1021.80 1021.80 1021.75 1021.64 1021.46 1021.19 1020.81 1020.34 1019.77 1019.11 1018.39 1017.64 1016.87 1016.11 1015.37 1014.66 1013.98 1013.34 1012.71 1012.11 1011.52 1010.94 1010.37 1009.80 1009.25 1008.71 1008.18 1007.65 1007.11 1006.57 1006.02
1019.83 1020.12 1020.37 1020.60 1020.81 1021.00 1021.16 1021.32 1021.45 1021.57 1021.68 1021.77 1021.83 1021.87 1021.86 1021.79 1021.65 1021.43 1021.11 1020.70 1020.19 1019.59 1018.93 1018.21 1017.45 1016.68 1015.91 1015.14 1014.39 1013.65 1012.92 1012.21 1011.52 1010.85 1010.19 1009.57 1008.97 1008.41 1007.88 1007.38 1006.90 1006.41 1005.91 1005.40
1019.81 1020.02 1020.21 1020.38 1020.56 1020.74 1020.92 1021.11 1021.29 1021.46 1021.62 1021.74 1021.83 1021.86 1021.84 1021.74 1021.55 1021.28 1020.92 1020.47 1019.94 1019.33 1018.67 1017.95 1017.20 1016.43 1015.64 1014.83 1014.03 1013.22 1012.42 1011.62 1010.84 1010.08 1009.37 1008.70 1008.10 1007.55 1007.06 1006.61 1006.19 1005.78 1005.36 1004.93
1019.59 1019.77 1019.93 1020.09 1020.27 1020.47 1020.68 1020.91 1021.15 1021.36 1021.55 1021.69 1021.77 1021.79 1021.72 1021.57 1021.33 1021.01 1020.60 1020.12 1019.57 1018.96 1018.29 1017.58 1016.84 1016.06 1015.25 1014.41 1013.55 1012.67 1011.78 1010.90 1010.04 1009.22 1008.46 1007.77 1007.17 1006.65 1006.22 1005.85 1005.52 1005.22 1004.91 1004.58
1019.26 1019.44 1019.61 1019.80 1020.01 1020.24 1020.50 1020.77 1021.04 1021.28 1021.47 1021.60 1021.66 1021.63 1021.50 1021.29 1020.99 1020.60 1020.15 1019.63 1019.06 1018.45 1017.79 1017.08 1016.34 1015.55 1014.72 1013.84 1012.93 1011.98 1011.02 1010.06 1009.13 1008.26 1007.46 1006.77 1006.19 1005.72 1005.35 1005.08 1004.86 1004.67 1004.50 1004.31
Thickness
5822 5808 5797 5804 5810 5808 5800 5791 5786 5793 5805 5796 5788 5786 5790 5794 5790 5786 5782 5780 5778 5777 5780 5779 5777 5775 5772 5768 5765 5763 5760 5758 5756 5753 5751 5748 5747 5747 5747 5747 5746 5746 5745 5744
5803 5799 5815 5820 5817 5810 5801 5790 5788 5795 5804 5797 5787 5786 5793 5795 5793 5792 5788 5784 5782 5780 5779 5778 5777 5775 5773 5769 5767 5765 5763 5761 5759 5757 5754 5752 5750 5748 5748 5748 5747 5747 5746 5745
5798 5808 5822 5817 5809 5804 5799 5792 5791 5790 5796 5796 5788 5779 5785 5794 5797 5796 5795 5792 5789 5786 5782 5780 5778 5776 5774 5771 5770 5769 5766 5764 5762 5760 5757 5754 5751 5749 5748 5747 5747 5747 5747 5746
5801 5814 5816 5810 5807 5805 5792 5807 5803 5794 5780 5768 5778 5754 5776 5784 5788 5792 5794 5793 5793 5792 5789 5784 5781 5778 5776 5776 5775 5772 5770 5767 5765 5762 5759 5755 5751 5748 5748 5748 5748 5748 5747 5747
5797 5809 5808 5804 5810 5811 5803 5810 5801 5790 5776 5764 5767 5756 5766 5780 5780 5789 5795 5798 5798 5797 5794 5790 5787 5784 5782 5780 5778 5775 5772 5770 5768 5765 5762 5758 5755 5753 5751 5750 5749 5749 5748 5747
5802 5814 5815 5814 5819 5818 5810 5797 5785 5772 5762 5748 5760 5754 5757 5772 5785 5794 5800 5802 5802 5802 5799 5795 5792 5788 5784 5782 5780 5778 5774 5772 5770 5767 5764 5761 5758 5756 5753 5751 5749 5749 5748 5748
5788 5801 5814 5820 5806 5806 5799 5773 5747 5743 5733 5739 5759 5755 5762 5791 5800 5804 5805 5806 5807 5806 5802 5797 5793 5790 5786 5784 5782 5780 5777 5774 5772 5770 5767 5764 5762 5759 5756 5753 5751 5750 5748 5747
5765 5770 5800 5811 5805 5793 5788 5777 5746 5733 5729 5738 5753 5752 5776 5802 5809 5811 5812 5810 5809 5807 5805 5802 5799 5795 5792 5789 5786 5783 5779 5776 5774 5772 5769 5767 5764 5761 5759 5757 5754 5752 5751 5749
5760 5767 5801 5811 5815 5803 5782 5773 5774 5747 5739 5734 5742 5758 5781 5801 5804 5806 5807 5808 5806 5807 5807 5805 5803 5800 5796 5792 5789 5786 5782 5779 5777 5774 5771 5768 5765 5762 5760 5758 5757 5755 5753 5752
5775 5769 5789 5802 5806 5800 5794 5776 5757 5743 5727 5726 5742 5751 5763 5787 5793 5799 5802 5804 5806 5808 5807 5806 5804 5802 5799 5796 5792 5789 5786 5782 5779 5775 5772 5770 5767 5764 5761 5759 5757 5756 5754 5752
5779 5766 5775 5785 5783 5779 5777 5769 5756 5742 5743 5728 5728 5749 5789 5792 5797 5798 5801 5805 5806 5807 5807 5806 5805 5804 5801 5797 5794 5790 5786 5783 5779 5776 5773 5770 5768 5765 5762 5760 5758 5756 5754 5751
5769 5756 5751 5768 5787 5793 5786 5773 5759 5749 5740 5734 5734 5753 5801 5799 5802 5801 5802 5805 5806 5807 5807 5805 5804 5802 5799 5796 5794 5791 5787 5785 5783 5778 5774 5771 5768 5766 5763 5760 5758 5756 5754 5751
5765 5748 5737 5745 5759 5775 5775 5771 5765 5755 5739 5728 5733 5757 5796 5796 5798 5800 5801 5802 5803 5803 5803 5801 5799 5797 5796 5795 5793 5790 5788 5786 5783 5779 5775 5771 5768 5766 5763 5760 5758 5756 5753 5750
5768 5743 5739 5736 5745 5761 5765 5766 5762 5757 5739 5733 5743 5762 5781 5787 5790 5795 5798 5799 5799 5799 5799 5797 5795 5794 5794 5793 5792 5790 5788 5786 5782 5778 5775 5771 5768 5765 5763 5760 5757 5754 5751 5749
5759 5740 5744 5750 5761 5763 5764 5765 5761 5760 5756 5749 5757 5761 5775 5783 5787 5792 5794 5795 5795 5794 5795 5794 5793 5792 5791 5790 5789 5787 5785 5784 5781 5776 5773 5770 5768 5764 5762 5758 5755 5752 5749 5746
5744 5736 5740 5744 5753 5757 5756 5760 5761 5761 5760 5759 5762 5762 5779 5783 5786 5786 5787 5789 5788 5789 5791 5791 5791 5789 5788 5787 5786 5784 5783 5781 5779 5775 5772 5770 5765 5762 5759 5756 5753 5749 5746 5743
5729 5730 5724 5724 5740 5747 5736 5749 5752 5753 5758 5759 5755 5764 5773 5774 5777 5779 5781 5783 5784 5786 5787 5787 5787 5787 5786 5785 5784 5781 5780 5779 5776 5773 5771 5768 5764 5760 5757 5755 5751 5747 5743 5740
5725 5716 5709 5711 5725 5714 5732 5754 5755 5751 5753 5759 5761 5765 5769 5772 5774 5777 5779 5779 5779 5781 5782 5784 5784 5783 5783 5782 5781 5779 5777 5775 5771 5768 5768 5767 5763 5760 5757 5752 5748 5745 5741 5738
5724 5716 5703 5698 5701 5711 5730 5745 5747 5743 5742 5754 5755 5760 5764 5768 5768 5767 5773 5776 5776 5777 5778 5779 5780 5780 5779 5777 5775 5773 5771 5770 5766 5764 5763 5762 5760 5757 5753 5750 5746 5742 5739 5735
5712 5711 5700 5694 5697 5695 5721 5742 5750 5743 5730 5749 5752 5753 5756 5758 5748 5753 5766 5768 5770 5771 5772 5773 5774 5774 5772 5771 5770 5766 5763 5761 5760 5759 5759 5757 5755 5752 5749 5746 5743 5740 5736 5732
5695 5692 5690 5689 5693 5701 5725 5736 5741 5720 5725 5743 5747 5748 5748 5746 5747 5753 5759 5760 5762 5763 5765 5766 5766 5765 5764 5763 5761 5757 5755 5754 5754 5754 5753 5751 5749 5746 5744 5740 5738 5734 5730 5725
5684 5682 5680 5680 5684 5693 5721 5726 5721 5721 5731 5736 5738 5739 5739 5741 5743 5746 5749 5750 5752 5754 5756 5757 5757 5756 5755 5754 5751 5748 5747 5747 5747 5745 5745 5744 5742 5740 5737 5733 5729 5726 5723 5719
5677 5680 5678 5681 5687 5701 5710 5714 5719 5722 5723 5727 5729 5732 5733 5733 5734 5736 5738 5741 5743 5744 5746 5747 5747 5746 5746 5745 5744 5740 5740 5741 5739 5738 5736 5735 5734 5731 5728 5725 5721 5718 5715 5711
5672 5675 5676 5679 5688 5696 5701 5706 5711 5715 5717 5721 5724 5725 5727 5726 5726 5728 5729 5731 5733 5734 5735 5736 5736 5735 5734 5734 5734 5732 5732 5732 5729 5728 5727 5727 5724 5722 5719 5717 5715 5712 5708 5705
5665 5668 5667 5671 5681 5688 5694 5697 5702 5706 5709 5712 5714 5717 5718 5717 5717 5718 5718 5719 5722 5724 5725 5725 5725 5724 5724 5723 5724 5722 5723 5722 5719 5718 5718 5717 5716 5715 5712 5709 5708 5706 5704 5701
5658 5661 5662 5665 5674 5676 5682 5690 5695 5697 5699 5702 5703 5705 5708 5708 5707 5708 5707 5709 5710 5711 5713 5714 5714 5715 5714 5713 5713 5713 5714 5713 5711 5710 5710 5709 5709 5707 5704 5702 5699 5697 5696 5693